Cosmos 2369 - Orbit

View from above orbital plane
View from above orbital plane
View from above satellite
View from above satellite

Ground track
Ground track

The orbit data is extracted from the following two-line orbital elements,

1 26069U 00006A   13139.78745667 -.00000018  00000-0  15716-4 0  9743
2 26069 070.9942 238.7435 0012161 317.4985 187.6735 14.13150994685694
Epoch (UTC): 19 May 2013 18:53:56
Eccentricity: 0.0012161
inclination: 70.9942°
perigee height: 840 km
apogee height: 857 km
right ascension of ascending node: 238.7435°
argument of perigee: 317.4985°
revolutions per day: 14.13150994
mean anomaly at epoch: 187.6735°
orbit number at epoch: 68569

The dashed part of the orbit path shows where the satellite is in the earth's shadow,  

Developed and maintained by Chris Peat, Heavens-Above GmbH. Please read the updated FAQ before sending e-mail. Imprint. DLR